Wind_Speed
7 9 10 10 11 12 13 13 15 17 18 19 19 19 17 17 16 17 17 19 21 22 23 25 27 28 29 31 32 32 33 34 34 35 36 36 36 37 37 38 38 39 39 38
6 8 9 11 11 10 11 13 14 16 17 18 19 19 19 18 17 17 17 18 20 22 23 25 26 27 29 29 30 30 31 32 32 33 34 34 34 35 35 36 36 36 36 36
5 6 7 9 9 7 8 11 12 14 15 16 17 18 17 16 16 16 18 19 20 21 23 24 24 26 26 27 28 28 29 29 29 30 31 31 31 32 32 32 32 32 32 32
3 3 3 4 6 7 9 11 12 14 16 17 18 17 16 16 16 17 18 19 20 21 22 23 24 25 25 26 26 26 26 26 27 27 28 28 27 28 28 29 30 30 30 30
2 2 2 4 6 8 9 11 13 14 15 16 15 15 15 15 16 16 17 17 19 20 21 21 22 22 23 23 24 24 25 25 25 25 26 26 26 27 27 28 29 29 29 29
4 5 6 8 9 10 11 12 13 14 14 15 14 14 13 14 14 15 15 16 18 19 19 20 20 20 21 21 21 21 22 23 23 24 24 25 26 26 26 26 27 27 26 26
5 6 7 10 11 12 12 13 14 14 14 14 14 13 13 13 12 13 13 14 14 15 15 16 17 17 18 19 19 20 20 21 22 22 23 23 23 23 24 24 24 24 24 23
6 7 9 11 12 13 13 14 14 14 14 14 13 13 12 11 11 11 11 11 12 12 13 14 14 15 16 17 18 19 19 20 20 20 21 21 21 21 21 21 21 21 20 20
7 8 9 11 13 13 14 14 14 14 14 13 13 12 11 11 10 9 9 10 10 11 11 12 13 13 14 15 17 17 18 18 18 18 18 18 18 18 18 18 18 18 18 18
6 8 9 11 12 13 14 15 15 15 14 14 13 11 10 10 9 9 9 9 9 9 10 10 11 12 13 14 15 15 16 16 16 17 16 17 17 17 16 16 15 15 16 15
7 8 9 11 12 14 15 16 16 16 15 14 13 12 10 9 8 8 8 8 8 8 8 9 10 11 12 13 14 14 14 14 14 15 15 15 14 14 14 14 14 14 13 12
7 8 10 12 13 15 16 16 16 16 15 14 13 12 11 10 9 9 9 9 9 8 9 9 10 11 11 11 11 11 11 11 12 12 13 12 12 12 12 12 12 12 11 11
7 9 11 12 14 15 16 17 16 16 16 14 14 13 12 11 10 10 10 10 9 9 9 9 9 9 9 9 9 9 9 10 10 10 10 10 10 10 11 10 10 10 9 9
7 9 10 12 13 15 16 16 16 16 16 15 14 14 13 12 12 11 11 10 10 10 10 10 10 10 9 8 8 8 8 8 8 8 8 8 8 9 9 9 9 9 8 7
6 8 10 12 13 14 15 16 16 16 16 16 16 15 14 14 14 13 12 12 12 12 12 11 11 10 9 9 8 8 8 7 7 7 7 7 7 8 7 8 8 7 6 6
6 8 9 11 12 14 14 15 16 16 16 16 16 16 16 15 15 15 14 14 14 14 13 13 12 11 10 10 9 9 8 8 8 8 8 7 7 7 7 7 6 6 5 5
5 7 9 10 12 13 14 15 15 16 16 17 17 17 16 16 16 16 16 16 16 16 16 15 13 12 12 11 11 10 9 9 9 8 8 7 7 7 7 6 5 5 4 4
5 7 9 10 11 13 13 14 15 16 16 17 17 17 17 16 17 17 17 17 17 17 17 16 15 14 13 12 12 11 11 11 10 10 9 9 8 8 7 6 5 5 5 4
4 6 8 9 11 12 13 14 15 16 16 17 17 17 17 17 17 18 18 18 18 18 18 18 17 16 15 14 13 13 12 12 12 12 11 10 10 9 8 7 6 6 5 5
3 5 7 8 10 12 13 14 14 15 16 16 17 17 18 17 17 18 18 19 19 20 19 19 19 18 17 16 15 14 14 13 13 13 13 13 12 11 9 8 7 7 7 6
2 4 6 7 9 11 12 13 13 14 15 16 16 17 17 18 17 18 18 19 20 20 20 20 20 20 19 18 17 16 16 15 15 14 14 14 14 13 11 10 9 8 8 8
1 2 4 6 8 10 11 12 13 13 14 15 15 16 17 17 17 18 18 19 19 20 20 21 21 20 19 19 18 18 17 17 16 16 16 15 15 14 13 12 10 9 9 9
1 1 3 5 7 8 9 10 11 12 13 14 14 15 15 16 17 17 18 18 19 19 20 20 21 20 20 19 19 19 19 19 18 18 17 16 16 15 14 13 12 12 11 10
2 1 2 3 5 7 8 9 10 11 11 12 13 13 14 14 15 16 16 17 17 18 19 19 19 19 19 19 19 19 19 19 18 18 17 17 16 16 15 14 13 12 12 11
4 3 3 3 4 6 7 8 8 9 10 10 11 12 12 13 13 14 15 15 16 16 17 18 18 18 18 18 18 19 19 19 18 18 18 17 16 16 15 14 13 13 12 12
6 5 4 4 5 5 6 7 7 8 9 9 10 10 11 11 12 12 13 14 15 15 16 16 17 17 17 17 17 18 18 18 18 18 17 17 16 15 15 14 14 13 13 12
9 7 6 6 6 6 6 6 7 7 8 8 8 9 9 9 10 10 11 12 13 14 14 15 15 16 16 16 16 16 16 16 16 16 16 16 16 15 15 15 14 13 13 13
Wind_Direction
246 240 235 235 235 244 257 267 276 284 289 293 297 298 291 285 281 278 269 264 263 265 265 265 266 265 267 269 270 270 272 274 274 275 277 278 279 280 282 283 284 284 285 286
247 239 243 241 242 254 256 270 280 286 288 292 295 298 296 293 287 281 275 270 267 266 266 266 267 268 269 270 270 272 274 275 277 277 278 279 281 282 283 284 284 284 285 285
257 251 248 239 250 275 296 297 293 294 296 297 297 297 295 291 286 282 279 274 274 271 270 269 270 271 273 273 273 274 274 276 278 279 281 281 281 282 283 284 285 285 285 285
263 257 247 262 275 304 313 313 305 300 300 298 298 298 295 291 285 281 279 275 273 272 270 270 271 274 276 277 275 274 276 278 279 280 281 282 282 283 283 284 283 284 285 285
317 302 327 327 331 328 325 320 316 310 306 305 304 300 298 294 288 283 279 276 274 273 273 273 273 274 275 275 275 275 275 276 278 279 281 281 282 282 284 285 286 286 286 286
352 356 349 348 343 338 330 328 323 317 314 311 311 308 305 303 296 287 281 277 276 276 276 276 275 274 273 274 274 276 277 278 278 279 280 281 282 284 285 286 286 286 286 287
11 5 0 351 349 344 341 337 331 326 323 322 321 321 317 311 302 294 288 283 283 281 278 278 278 277 275 275 275 276 277 277 279 280 282 284 286 286 287 287 287 287 288 288
10 5 1 358 355 352 349 344 339 335 334 333 330 326 322 316 308 302 296 293 292 287 282 281 281 279 278 279 278 277 277 279 281 283 285 286 286 287 288 289 290 290 291 291
19 12 5 0 358 356 355 353 350 347 346 344 339 334 332 327 319 313 309 307 303 294 287 285 283 282 282 282 282 280 279 281 282 285 288 288 288 289 290 292 292 293 294 293
24 16 9 5 2 1 1 359 358 356 354 352 350 346 343 339 334 328 324 320 314 305 298 292 288 286 285 285 285 284 283 285 285 287 289 288 288 289 291 293 295 297 298 297
27 21 13 9 7 5 5 4 4 3 1 360 359 360 358 355 351 347 344 339 329 317 308 305 302 299 297 295 294 292 292 291 289 290 290 289 288 290 294 298 300 301 301 300
33 24 19 16 12 11 10 9 9 10 11 13 15 14 10 6 2 0 358 354 347 338 329 324 319 314 310 308 305 302 301 300 299 296 294 292 292 294 296 300 304 305 302 300
35 26 21 18 16 15 14 14 14 16 18 19 19 18 16 15 12 8 2 359 358 355 350 344 339 334 327 321 319 318 316 312 310 305 301 300 300 300 301 303 308 309 306 305
36 28 24 20 18 18 18 19 21 22 23 23 22 23 24 22 19 16 15 12 10 6 1 356 352 349 346 341 338 336 333 329 326 321 315 312 311 311 310 311 309 308 309 313
39 31 26 23 21 21 22 24 25 27 27 28 29 29 29 28 26 24 21 19 17 13 9 6 3 2 2 0 356 353 351 348 345 342 336 328 324 323 321 321 319 316 315 319
39 31 27 24 24 24 25 27 28 29 30 31 31 31 31 31 31 30 28 26 24 21 18 16 16 16 13 10 7 6 6 1 356 353 350 346 343 340 337 336 336 334 331 331
44 34 30 28 26 25 25 27 29 31 32 33 33 33 33 34 34 33 32 30 28 26 24 23 23 23 23 20 18 19 17 12 6 2 2 2 359 357 357 357 357 357 357 356
54 40 34 31 29 28 27 28 31 32 33 34 35 35 35 36 36 36 35 33 31 29 28 27 28 28 29 28 29 30 29 25 21 16 15 13 10 10 14 18 19 19 18 18
61 44 36 33 32 32 31 32 33 34 35 36 36 36 37 39 39 38 36 35 34 34 33 33 35 36 36 37 37 36 34 30 28 27 26 24 23 25 29 33 35 35 34 33
69 48 37 33 32 33 33 34 35 35 36 37 38 39 40 40 40 40 40 39 38 38 37 38 40 40 40 40 40 38 36 34 33 33 32 31 32 33 35 38 41 42 43 43
81 49 37 32 31 32 33 34 35 36 36 37 39 40 41 41 41 40 40 40 40 39 40 40 41 41 41 41 41 40 39 37 36 35 35 36 37 38 39 41 44 46 46 44
115 48 33 28 26 28 30 32 35 36 37 37 38 39 41 42 42 41 41 41 40 40 40 41 41 41 42 42 41 40 39 37 37 38 38 38 38 39 40 43 45 47 47 46
184 24 18 17 19 22 25 28 31 33 34 35 36 37 38 39 40 40 40 39 39 39 39 40 40 40 41 41 41 40 39 38 38 38 39 39 40 41 43 45 46 48 48 47
224 264 326 353 5 11 15 20 24 27 29 30 32 33 34 35 36 37 37 37 37 37 38 38 38 38 39 39 40 40 39 38 38 38 39 39 40 41 42 43 44 45 46 46
238 263 288 316 339 353 2 9 14 19 21 23 26 27 28 30 31 31 32 33 34 34 34 34 34 34 35 36 37 38 38 38 37 37 38 38 39 39 40 41 42 43 43 43
241 258 277 296 315 331 344 354 1 7 11 13 16 18 20 22 24 25 27 29 30 30 30 29 30 30 30 30 31 33 35 35 35 36 36 36 37 38 39 39 39 39 39 39
243 256 271 286 300 312 322 333 342 350 355 359 3 7 9 11 14 17 20 23 24 25 25 25 25 26 26 26 26 27 28 29 30 31 32 33 34 35 36 36 36 35 35 34
Height
5758 5758 5758 5758 5759 5760 5760 5760 5760 5760 5759 5758 5757 5756 5756 5756 5755 5755 5755 5755 5756 5756 5756 5757 5757 5757 5757 5756 5756 5756 5755 5754 5753 5752 5751 5750 5749 5747 5745 5744 5742 5740 5738 5736
5756 5756 5756 5757 5758 5758 5758 5758 5757 5757 5756 5754 5753 5752 5752 5751 5751 5751 5750 5750 5750 5750 5750 5750 5749 5749 5749 5748 5748 5747 5747 5746 5744 5743 5742 5741 5739 5738 5736 5734 5732 5730 5728 5726
5755 5754 5755 5756 5756 5756 5755 5755 5754 5753 5753 5750 5749 5748 5747 5747 5746 5746 5745 5745 5744 5744 5743 5742 5742 5742 5741 5740 5740 5739 5738 5737 5736 5735 5733 5732 5730 5729 5727 5725 5723 5721 5719 5717
5754 5755 5754 5756 5754 5754 5752 5751 5750 5749 5748 5746 5745 5744 5742 5741 5740 5740 5739 5738 5738 5737 5736 5735 5735 5734 5733 5733 5732 5731 5730 5729 5728 5727 5726 5724 5722 5721 5719 5717 5715 5713 5711 5709
5754 5753 5753 5753 5752 5751 5750 5748 5746 5745 5743 5741 5739 5738 5737 5736 5735 5734 5733 5732 5731 5730 5729 5728 5728 5727 5726 5726 5725 5724 5723 5722 5721 5720 5718 5717 5715 5713 5711 5709 5707 5705 5703 5701
5753 5752 5752 5752 5750 5748 5748 5745 5743 5741 5739 5737 5735 5733 5732 5730 5729 5728 5727 5726 5725 5724 5723 5722 5722 5721 5720 5719 5718 5717 5716 5715 5714 5713 5711 5709 5708 5706 5704 5702 5700 5698 5695 5693
5753 5752 5751 5750 5747 5746 5745 5743 5740 5737 5735 5732 5730 5729 5728 5726 5724 5723 5722 5721 5720 5718 5717 5717 5716 5715 5714 5713 5712 5711 5710 5709 5707 5706 5704 5702 5701 5699 5697 5695 5693 5691 5689 5687
5752 5751 5752 5748 5746 5744 5742 5739 5736 5733 5731 5729 5727 5725 5723 5721 5720 5719 5717 5716 5715 5714 5713 5712 5711 5710 5709 5708 5707 5705 5704 5703 5701 5700 5698 5696 5695 5693 5691 5689 5687 5685 5683 5681
5752 5752 5749 5747 5745 5743 5740 5737 5734 5731 5728 5726 5724 5721 5719 5718 5716 5715 5714 5713 5711 5710 5709 5708 5707 5706 5704 5703 5701 5700 5699 5697 5696 5694 5693 5691 5689 5688 5686 5684 5682 5680 5678 5676
5751 5750 5748 5747 5744 5741 5739 5736 5732 5729 5726 5724 5721 5719 5717 5715 5714 5712 5711 5710 5708 5707 5706 5704 5703 5702 5700 5698 5697 5695 5693 5692 5691 5689 5688 5686 5685 5683 5681 5680 5678 5676 5674 5672
5751 5750 5748 5746 5744 5741 5738 5735 5731 5728 5725 5722 5720 5718 5716 5714 5712 5711 5709 5707 5706 5704 5703 5701 5699 5698 5696 5694 5693 5691 5689 5688 5686 5685 5683 5682 5680 5679 5677 5676 5674 5672 5670 5669
5751 5750 5749 5746 5743 5741 5738 5734 5731 5728 5725 5722 5719 5717 5715 5713 5711 5710 5708 5706 5704 5702 5700 5698 5697 5695 5693 5691 5689 5687 5686 5684 5682 5681 5679 5678 5676 5675 5674 5672 5671 5669 5667 5666
5751 5750 5748 5746 5743 5741 5738 5735 5731 5728 5725 5722 5720 5718 5715 5713 5711 5709 5707 5705 5703 5701 5699 5696 5694 5692 5690 5688 5686 5685 5683 5681 5679 5678 5676 5675 5673 5672 5671 5670 5668 5666 5665 5663
5751 5750 5748 5746 5744 5741 5739 5736 5732 5729 5726 5723 5721 5718 5716 5713 5711 5709 5707 5705 5703 5700 5698 5695 5693 5691 5688 5686 5684 5682 5681 5679 5677 5675 5674 5672 5671 5670 5668 5667 5665 5664 5662 5661
5751 5750 5749 5747 5745 5742 5740 5737 5734 5731 5728 5725 5722 5720 5717 5714 5712 5710 5708 5705 5703 5700 5697 5695 5692 5689 5687 5685 5683 5681 5679 5678 5676 5674 5672 5671 5670 5668 5666 5665 5663 5662 5661 5660
5751 5750 5749 5747 5745 5743 5741 5738 5735 5732 5729 5727 5724 5721 5718 5716 5713 5711 5708 5706 5703 5700 5697 5694 5692 5689 5687 5685 5683 5681 5679 5677 5675 5673 5672 5670 5668 5667 5665 5663 5662 5660 5659 5659
5751 5750 5749 5748 5746 5744 5742 5739 5737 5734 5731 5728 5726 5723 5720 5717 5715 5712 5710 5707 5704 5701 5698 5695 5692 5689 5687 5685 5683 5681 5679 5677 5675 5673 5671 5669 5668 5666 5664 5662 5661 5660 5659 5658
5752 5751 5750 5749 5747 5745 5743 5741 5738 5736 5733 5730 5727 5725 5722 5719 5717 5714 5711 5709 5706 5702 5699 5696 5693 5690 5688 5686 5684 5682 5680 5678 5676 5674 5672 5670 5668 5666 5664 5662 5661 5660 5659 5658
5752 5751 5751 5749 5748 5746 5744 5742 5740 5737 5735 5732 5729 5727 5724 5721 5719 5716 5713 5711 5708 5705 5702 5698 5695 5692 5690 5688 5686 5684 5682 5679 5677 5675 5673 5670 5668 5666 5665 5663 5662 5661 5660 5659
5751 5751 5751 5750 5749 5747 5745 5743 5741 5739 5736 5734 5731 5729 5726 5724 5721 5719 5716 5713 5710 5707 5704 5701 5698 5695 5693 5690 5688 5686 5684 5682 5679 5677 5674 5672 5670 5668 5666 5665 5663 5662 5661 5660
5751 5751 5751 5750 5749 5748 5746 5744 5742 5740 5738 5736 5733 5731 5729 5726 5724 5721 5719 5716 5713 5710 5708 5705 5701 5699 5696 5694 5691 5689 5687 5684 5682 5679 5677 5674 5672 5670 5668 5666 5665 5664 5663 5662
5750 5751 5751 5750 5749 5748 5747 5745 5744 5742 5740 5738 5735 5733 5731 5729 5726 5724 5721 5719 5716 5714 5711 5708 5705 5702 5700 5697 5695 5692 5690 5687 5684 5682 5679 5677 5675 5673 5671 5669 5667 5666 5664 5663
5749 5750 5750 5750 5749 5748 5747 5746 5744 5743 5741 5739 5737 5735 5733 5731 5729 5726 5724 5722 5719 5716 5714 5711 5708 5706 5703 5700 5698 5695 5693 5690 5687 5685 5682 5680 5678 5676 5674 5672 5670 5668 5667 5666
5748 5749 5749 5749 5749 5748 5747 5746 5745 5744 5742 5740 5738 5737 5735 5733 5731 5728 5726 5724 5722 5719 5717 5714 5712 5709 5706 5704 5701 5699 5696 5693 5691 5688 5686 5683 5681 5679 5677 5675 5673 5671 5670 5668
5746 5747 5748 5748 5748 5748 5747 5746 5745 5744 5742 5741 5739 5738 5736 5734 5732 5730 5728 5726 5724 5721 5719 5717 5714 5712 5709 5707 5705 5702 5699 5697 5694 5692 5689 5687 5685 5682 5680 5678 5677 5675 5673 5671
5744 5745 5746 5747 5747 5747 5746 5745 5745 5744 5742 5741 5740 5738 5736 5735 5733 5732 5730 5728 5726 5723 5721 5719 5717 5714 5712 5709 5707 5705 5702 5700 5697 5695 5693 5690 5688 5686 5684 5682 5680 5678 5676 5674
5742 5743 5744 5744 5745 5745 5744 5744 5743 5743 5742 5741 5739 5738 5737 5735 5734 5732 5730 5729 5727 5725 5723 5721 5719 5716 5714 5711 5709 5707 5704 5702 5700 5698 5695 5693 5691 5689 5687 5684 5682 5680 5678 5677